Regional Weather Roundup
Issued by NWS

Home | Current Version | Previous Version | Graphics & Text | Print | Product List | Glossary On
Versions: 1 2 3 4 5 6 7 8 9 10 11 12 13 14 15 16 17 18 19 20 21 22 23 24 25 26 27 28 29 30 31 32 33 34 35 36 37 38 39 40 41 42 43 44 45 46 47 48 49 50
000
ASUS43 KTOP 251559
RWRKS

WEATHER ROUNDUP FOR KANSAS
NATIONAL WEATHER SERVICE GOODLAND KS
1000 AM CST SAT FEB 25 2017

NOTE:  "FAIR" INDICATES FEW OR NO CLOUDS BELOW 12,000 FEET WITH NO
SIGNIFICANT WEATHER AND/OR OBSTRUCTIONS TO VISIBILITY.

KSZ001>006-013>018-027>032-041>047-251700-
NORTHWEST KANSAS

CITY           SKY/WX    TMP DP  RH WIND       PRES   REMARKS
GOODLAND       SUNNY     28  21  75 SW17      30.01F WCI  16
HAYS           SUNNY     27  16  63 SW12      30.16F WCI  17
HILL CITY      SUNNY     28  17  63 SW6       30.12F
RUSSELL        SUNNY     25  18  74 SW8       30.15F
$$

KSZ061>065-074>080-084>089-251700-
SOUTHWEST KANSAS

CITY           SKY/WX    TMP DP  RH WIND       PRES   REMARKS
DODGE CITY     CLOUDY    28  15  58 SW8       30.15F
ELKHART          N/A     29  12  49 SW12        N/A  WCI  19
GARDEN CITY    SUNNY     29  13  51 SW14      30.12F WCI  18
GREAT BEND     SUNNY     29  16  58 SW12      30.19F WCI  19
LIBERAL        SUNNY     30  16  55 S14       30.15F WCI  20
$$

KSZ066>073-081>083-090>101-251700-
SOUTHEAST KANSAS

CITY           SKY/WX    TMP DP  RH WIND       PRES   REMARKS
CHANUTE        SUNNY     32  17  54 NW9       30.22S
COFFEYVILLE    SUNNY     33  19  56 N7        30.25S
HUTCHINSON     SUNNY     28  16  60 W6        30.21S
MEDICINE LODGE   N/A     29  16  58 W5        30.22F
NEWTON         SUNNY     28  18  66 VRB3      30.20F
PARSONS        SUNNY     33  18  53 NW9       30.24R
WICHITA INTL   MOSUNNY   30  16  56 NW6       30.22S
WICHITA JABRA  SUNNY     29  17  61 W5        30.21S
WINFIELD       SUNNY     32  18  56 NW6       30.25S
$$

KSZ007>012-019>026-033>040-048>060-102>105-251700-
NORTHEAST KANSAS

CITY           SKY/WX    TMP DP  RH WIND       PRES   REMARKS
CONCORDIA      SUNNY     25  18  74 W7        30.18R
EMPORIA        SUNNY     29  17  61 NW6       30.20S
LAWRENCE       SUNNY     29  20  69 NW9       30.19F
MANHATTAN      SUNNY     30  17  58 VRB5      30.20S
OLATHE IND     SUNNY     27  16  63 W10       30.18S WCI  17
OLATHE EXE     SUNNY     28  15  58 N12       30.17S WCI  18
SALINA         SUNNY     31  16  54 W5        30.20F
TOPEKA BILLARD SUNNY     29  18  63 W7        30.19F
TOPEKA FORBES  SUNNY     30  16  56 NW6       30.18F
$$




USA.gov is the U.S. government's official web portal to all federal, state and local government web resources and services.